{"data":{"norad_id":62910,"epoch":"2026-05-24T14:37:53.989824Z","epoch_age_seconds":119153,"freshness":"FRESH","line1":"1 62910U 25027D   26144.60965266  .00228949  00000+0  17243-2 0  9993","line2":"2 62910  42.9993 249.9293 0002113 309.3906  50.6774 15.71042905 75095","mean_motion":15.71042905,"eccentricity":0.0002113,"inclination_deg":42.9993,"raan_deg":249.9293,"arg_perigee_deg":309.3906,"mean_anomaly_deg":50.6774,"bstar":0.0017243,"rev_number":7509,"period_min":91.65885892849,"perigee_km":354.49227829634,"apogee_km":357.33808874909,"semimajor_km":6734.0521835227,"source":"CELESTRAK","updated_at":"2026-05-25T13:38:19.818242Z"}}